L'annuel contre-la-montre rendant hommage à tous les membres du club trop tôt disparus a connu un très beau succès de participation ce mercredi 30 août. Nous vous remercions pour votre venue. Quelques photos dans le diapo ci-contre. Voici les résultats complets. Mille mercis aussi à l'équipe organisatrice.

 

Nom Prénom Année de naissance Sexe Temps Temps/km km/h Club
BOURGEOIS Sébastien 1977 M 0:09:37 0:03:12 18,72 ESM/TRAKKS
LESOIL Mathias 1993 M 0:09:52 0:03:17 18,25 ESM
ARNO Simon 2002 M 0:10:02 0:03:21 17,95 ESM
PASQUASY Fabien 1978 M 0:10:07 0:03:22 17,79 ACCO
VAN REUSEL Jerome 1974 M 0:10:11 0:03:24 17,68 ESM
RUSSO Felipe 2000 M 0:10:35 0:03:32 17,00 UAC
NUYTTEN Maxime 1994 M 0:10:36 0:03:32 16,98 ACCO
MALEVE Bérengère 1976 F 0:10:44 0:03:35 16,78 ESM/TRAKKS
PROVOOST Erwin 1978 M 0:10:49 0:03:36 16,65 ESM
ROB Vincent 1984 M 0:10:50 0:03:37 16,62 FLEURUS
MORTIER Pierre 1968 M 0:10:52 0:03:37 16,57 ESM
Agten Dries 1988 M 0:10:55 0:03:38 16,48  
GOUVERNEUR Benoît 1973 M 0:11:00 0:03:40 16,36 ESM
DOYEN Maxime 1987 M 0:11:05 0:03:42 16,25 Zonards Lobbes
THOMAS Dominic 1961 M 0:11:09 0:03:43 16,14 ACCO
DESTREE Thomas 1980 M 0:11:13 0:03:44 16,05 ACCO
BRUNEBARBE Joël 1971 M 0:11:20 0:03:47 15,87 ESM
BODSON Guillaume 1992 M 0:11:22 0:03:47 15,83  
VAN DE GHINSTE Gregoire 1999 M 0:11:22 0:03:47 15,83 ESM
HOUYOUX Jean-Pierre 1972 M 0:11:26 0:03:49 15,75 ESM
BERGER Thierry 1968 M 0:11:26 0:03:49 15,74  
CADO Paul 1960 M 0:11:28 0:03:49 15,70 FLEURUS
Hotchamp Vincent 1964 M 0:11:30 0:03:50 15,65  
LUST Damien   M 0:11:33 0:03:51 15,59 ESM
DECAMPS Eric 1967 M 0:11:35 0:03:52 15,55 ESM
BRAUNE Thomas 2000 M 0:11:35 0:03:52 15,53  
Bulteau Benoit 1980 M 0:11:35 0:03:52 15,53  
Poucet Benoit 1965 M 0:11:44 0:03:55 15,34  
DEMANET Arnaud 1993 M 0:11:44 0:03:55 15,33 Zonards Lobbes
POUCET Fabrice 1979 M 0:11:47 0:03:56 15,28 ACCO
DELESTENNE Yves 1960 M 0:11:49 0:03:56 15,24 ESM
Hallet Pierre 1982 M 0:12:01 0:04:00 14,98  
LORIAUX Emilie 1984 F 0:12:03 0:04:01 14,94 ESM/TRAKKS
ES Christian 1958 M 0:12:05 0:04:02 14,90 ESM
LETE Pascal 1960 M 0:12:06 0:04:02 14,88 ESM
Girol Garcia David 1978 M 0:12:06 0:04:02 14,87  
Alexandre Thomas 1989 M 0:12:08 0:04:03 14,83  
Henneaux Quentin  1988 M 0:12:14 0:04:05 14,72  
Vanheghe Grégoire 1986 M 0:12:15 0:04:05 14,69  
Andre Thibaut  1982 M 0:12:16 0:04:05 14,68  
ARNO Lucie 1999 F 0:12:19 0:04:06 14,61 ESM
Couwenbergh Quentin 1989 M 0:12:20 0:04:07 14,59  
NYS Déborah 1990 F 0:12:21 0:04:07 14,57 ESM/ZONARDS LOBBES
Naert Frédéric 1967 M 0:12:30 0:04:10 14,40  
INGRASSI Vincent 1980 M 0:12:30 0:04:10 14,40 ESM
Gruwé Alain  1967 M 0:12:31 0:04:10 14,37  
De Groef Thibault 1988 M 0:12:32 0:04:11 14,37  
TAELS Ton 1970 M 0:12:36 0:04:12 14,29 ESM
DEMOULIN Alain 1959 M 0:12:36 0:04:12 14,29 ESM
Das Johan 1975 M 0:12:38 0:04:13 14,25  
BOURGEOIS Louis 2005 M 0:12:39 0:04:13 14,24 ESM
Gavi Kokougan  1987 M 0:12:40 0:04:13 14,22  
HAMOIR Karen 1981 F 0:12:40 0:04:13 14,20 ESM
PRAIL Christian   M 0:12:44 0:04:15 14,14 Zonards Lobbes
Galice Antoine  1992 M 0:12:45 0:04:15 14,11  
CAPOUILLEZ Benoit 1972 M 0:12:47 0:04:16 14,08 ESM
FRATHIA Alia 2002 F 0:12:48 0:04:16 14,07 ACCO
VERBRUGGEN Marc 1974 M 0:12:48 0:04:16 14,06 ESM 
ANTENUCCI Mauro 1957 M 0:12:52 0:04:17 13,98 ESM
HONORE David 1969 M 0:12:53 0:04:18 13,98 ESM
TOMASSETTI Yohan 1974 M 0:12:54 0:04:18 13,96 ESM
Lakraichi Youssef 1981 M 0:12:57 0:04:19 13,91  
BOURGEOIS Oscar 2007 M 0:12:59 0:04:20 13,86 ESM
HOUYOUX Louis 2007 M 0:12:59 0:04:20 13,86 ESM
MAILIER Christian 1956 M 0:13:00 0:04:20 13,85 ESM
PIACCENTINI Marco 1956 M 0:13:02 0:04:21 13,81 ESM
TAMINIAU Elise 2004 F 0:13:04 0:04:21 13,77 ACCO
MAGIS Bernard 1950 M 0:13:10 0:04:23 13,67 ESM
SOLLENNITA Angelo 1959 M 0:13:14 0:04:25 13,59  
Marius Sébastien 1983 M 0:13:17 0:04:26 13,56  
VERMASSEN Marcel 1960 M 0:13:19 0:04:26 13,52 ESM
BALLAERA Giovanni 1971 M 0:13:19 0:04:26 13,52  
Santimaria Philippe 1973 M 0:13:19 0:04:26 13,52  
CONIGLIO Maria Concetta 1970 F 0:13:19 0:04:26 13,52 UAC
VAN RENTERGHEM André 1954 M 0:13:22 0:04:27 13,47 ACCO
Leclercq Jean-Philippe 1983 M 0:13:24 0:04:28 13,43  
DUJARDIN Stéphane 1981 M 0:13:28 0:04:29 13,37  
Biver Alain 1964 M 0:13:28 0:04:29 13,36  
VANDROMME Pieter 1984 M 0:13:30 0:04:30 13,33  
DEMANET Patrick 1963 M 0:13:35 0:04:32 13,24 Zonards Lobbes
HONORE Louis 1997 M 0:13:36 0:04:32 13,24 ESM
Bayart Vincent 1986 M 0:13:41 0:04:34 13,15  
Fievez Nicolas  1981 M 0:13:41 0:04:34 13,15  
Igot Pierrick 1993 M 0:13:42 0:04:34 13,13  
DEWANDEL Laurent 1964 M 0:13:43 0:04:34 13,13 Zonards Lobbes
Liegois Pascal 1969 M 0:13:43 0:04:34 13,13  
Oflazoglu Hursit 1988 M 0:13:44 0:04:35 13,11  
Poucet Bernard 1983 F 0:13:45 0:04:35 13,09 ACCO
GOBLET Annick 1993 F 0:13:48 0:04:36 13,04 ACCO
PIERARD Marie-Noëlle 1962 F 0:13:49 0:04:36 13,02 ESM
Leclercq Ludovic  1978 M 0:13:51 0:04:37 13,00  
DRYGALSKI Lucie 1992 F 0:13:52 0:04:37 12,98  
Covolan Sergio     0:13:54 0:04:38 12,95  
CHUSANO Maria-Teresa 1974 F 0:13:58 0:04:39 12,89 ESM
DENIS Christian 1953 M 0:14:00 0:04:40 12,85 ESM/ZONARDS LOBBES
VERBRUGGEN Maude 2001 F 0:14:07 0:04:42 12,74 ESM
DELITTE Bénédicte 1967 F 0:14:08 0:04:43 12,74 ESM
QUERTINMONT Frank 1967 M 0:14:09 0:04:43 12,72 Zonards Lobbes
COLOT Marie 1994 F 0:14:15 0:04:45 12,63 ACCO
TURLA Derry 1957 M 0:14:16 0:04:45 12,62 ESM
DEWULF Luc 1955 M 0:14:19 0:04:46 12,57 ESM
VAN DE GHINSTE Etienne 1956 M 0:14:24 0:04:48 12,50  
MAUER Jessica 1959 F 0:14:30 0:04:50 12,42  
Pierard  Thibault ? M 0:14:31 0:04:50 12,40 ESM
MICHEL Dimitri 1975 M 0:14:33 0:04:51 12,38 ESM
ROLIN Martine 1956 F 0:14:36 0:04:52 12,33 ACCO
FOULON Jean-Pol 1956 M 0:14:38 0:04:53 12,30 ESM
DELPORTE Pascal 1964 M 0:14:38 0:04:53 12,30  
Verstappen Nicolas  1984 M 0:14:40 0:04:53 12,28  
COPPE Gauthier 1972 M 0:14:42 0:04:54 12,25  
BERTIEAUX Pascal 1965 M 0:14:45 0:04:55 12,21 ESM
Renard  Isabelle   F 0:14:46 0:04:55 12,19 JCPMF
BOMBECKE Julien 1988 M 0:14:49 0:04:56 12,15 ESM
Andrin Denis 1980 M 0:14:57 0:04:59 12,04  
DOMBIER Eric 1968 M 0:14:58 0:04:59 12,03 ESM
COUTELLIER Marie-Louise 1953 F 0:15:01 0:05:00 11,98 ESM
Bouyanzar Hicham 1980 M 0:15:05 0:05:02 11,93  
Liegois Stephane 1974 M 0:15:11 0:05:04 11,85 ESM
Maes Isabelle 1973 F 0:15:13 0:05:04 11,83 Zonards Lobbes
THIRION Fanfan 1857 F 0:15:14 0:05:05 11,81 ESM/ZONARDS LOBBES
CUVELIER Stéphanie 1975 F 0:15:21 0:05:07 11,72 ACCO
SEL  Fabienne 1964 F 0:15:22 0:05:07 11,71 ESM
TIMMERMANS Emilie 1980 F 0:15:23 0:05:08 11,70 ESM
BAUDSON Stéphanie 1976 F 0:15:24 0:05:08 11,69 ESM
Ballistreri Lisa 1975 F 0:15:26 0:05:09 11,66  
Tchamna Tiako Luc 1976 M 0:15:40 0:05:13 11,49  
LAUWAERT Christian 1951 M 0:15:41 0:05:14 11,47 ESM
FRANSSENS Valérie 1976 F 0:15:51 0:05:17 11,36 ESM
Van Wynendaele Etienne 1959 M 0:15:53 0:05:18 11,33  
DRUGMAND Eloïse   F 0:15:57 0:05:19 11,29 ESM
VLAMINCK André 1954 M 0:16:03 0:05:21 11,22 ESM
GESELS Emmanuel   M 0:16:04 0:05:21 11,20 ESM
SEVERINO Franca 1965 F 0:16:12 0:05:24 11,11  
GILLES Françoise 1958 F 0:16:15 0:05:25 11,08 ESM
FODIL Ferial 1980 M 0:16:17 0:05:26 11,06  
PIETTON Laurence 1970 F 0:16:28 0:05:29 10,93 ESM
BURLON Vanessa 1982 F 0:16:32 0:05:31 10,88 ESM
 VAN DAMME Daniel 1948 M 0:16:42 0:05:34 10,77 Zonards Lobbes
Cucu Sandrine 1973 F 0:16:48 0:05:36 10,72 Zonards Lobbes
LAHOUSSE  Lucas 2006 M 0:16:56 0:05:39 10,63 ESM
HONORE Florine 2000 F 0:16:56 0:05:39 10,63 ESM
KEBBACHE Malika 1971 F 0:17:01 0:05:40 10,58  
LEGROS Nathalie 1972 F 0:17:05 0:05:42 10,54  
ORSELLI Aline   F 0:17:15 0:05:45 10,44 ESM
DRUAUX Véronique 1966 F 0:17:27 0:05:49 10,32  
PLUMET  Brigitte 1953 F 0:17:30 0:05:50 10,29  
CERINI Carla 1967 F 0:17:42 0:05:54 10,17 ESM
DRYGALSKI Raymond 1948 M 0:18:00 0:06:00 10,00 ESM
GARCIA RUBIO Roccio 1968 F 0:18:08 0:06:03 9,93  
SPRIMONT Isabelle 1970 F 0:18:16 0:06:05 9,85 Zonards Lobbes
VANHUYTRECHT Isabelle 1959 F 0:18:17 0:06:06 9,85  
Van Geel Viviane 1959 F 0:18:34 0:06:11 9,70  
ROCHET Alain 1969 M 0:18:48 0:06:16 9,58 Zonards Lobbes
GAJEWSKI Céline  1986 F 0:18:57 0:06:19 9,50  

Accueil des nouveaux.

bienvenueEnvie de faire de la course à pied dans une ambiance conviviale, en suivant des entrainements spécifiques adaptés à ton niveau?

Lire la suite...